TimeEDT,TemperatureF,Dew PointF,Humidity,Sea Level PressureIn,VisibilityMPH,Wind Direction,Wind SpeedMPH,Gust SpeedMPH,PrecipitationIn,Events,Conditions,WindDirDegrees,DateUTC
12:56 AM,62.1,55.9,80,29.93,10.0,NNW,6.9,-,N/A,,Clear,340,2013-09-03 04:56:00
1:56 AM,60.1,55.9,86,29.95,10.0,North,4.6,-,N/A,,Clear,350,2013-09-03 05:56:00
2:56 AM,61.0,55.9,83,29.94,10.0,North,8.1,-,N/A,,Clear,350,2013-09-03 06:56:00
3:56 AM,57.9,55.0,90,29.96,10.0,NNW,6.9,-,N/A,,Clear,340,2013-09-03 07:56:00
4:56 AM,55.9,54.0,93,29.96,10.0,NNW,6.9,-,N/A,,Clear,340,2013-09-03 08:56:00
5:56 AM,55.0,53.1,93,29.97,10.0,NW,6.9,-,N/A,,Clear,320,2013-09-03 09:56:00
6:56 AM,54.0,53.1,97,29.99,10.0,NW,6.9,-,N/A,,Clear,310,2013-09-03 10:56:00
7:56 AM,55.0,53.1,93,30.01,10.0,NNW,6.9,-,N/A,,Clear,330,2013-09-03 11:56:00
8:56 AM,60.1,54.0,80,30.04,10.0,North,11.5,-,N/A,,Clear,350,2013-09-03 12:56:00
9:56 AM,62.1,48.9,62,30.05,10.0,North,15.0,-,N/A,,Partly Cloudy,350,2013-09-03 13:56:00
10:21 AM,64.4,48.2,56,30.06,10.0,North,8.1,-,N/A,,Mostly Cloudy,360,2013-09-03 14:21:00
10:56 AM,63.0,48.9,60,30.06,10.0,North,11.5,-,N/A,,Mostly Cloudy,350,2013-09-03 14:56:00
11:56 AM,66.0,50.0,56,30.06,10.0,NNE,8.1,17.3,N/A,,Mostly Cloudy,30,2013-09-03 15:56:00
12:46 PM,66.2,50.0,56,30.07,10.0,NW,10.4,-,N/A,,Scattered Clouds,310,2013-09-03 16:46:00
12:56 PM,66.9,51.1,57,30.06,10.0,NW,8.1,17.3,N/A,,Scattered Clouds,320,2013-09-03 16:56:00
1:56 PM,70.0,52.0,53,30.05,10.0,North,8.1,-,N/A,,Partly Cloudy,350,2013-09-03 17:56:00
2:56 PM,72.0,53.1,51,30.04,10.0,NW,11.5,-,N/A,,Partly Cloudy,310,2013-09-03 18:56:00
3:56 PM,73.0,53.1,49,30.04,10.0,North,5.8,-,N/A,,Scattered Clouds,360,2013-09-03 19:56:00
4:56 PM,73.9,53.1,48,30.02,10.0,North,8.1,-,N/A,,Partly Cloudy,10,2013-09-03 20:56:00
5:56 PM,75.0,53.1,46,30.02,10.0,NNW,8.1,-,N/A,,Partly Cloudy,340,2013-09-03 21:56:00
6:56 PM,73.9,54.0,50,30.02,10.0,NNW,5.8,-,N/A,,Scattered Clouds,340,2013-09-03 22:56:00
7:56 PM,71.1,54.0,55,30.02,10.0,Calm,Calm,-,N/A,,Partly Cloudy,0,2013-09-03 23:56:00
8:56 PM,64.9,54.0,68,30.04,10.0,WSW,3.5,-,N/A,,Partly Cloudy,250,2013-09-04 00:56:00
9:56 PM,64.9,55.0,70,30.06,10.0,Calm,Calm,-,N/A,,Clear,0,2013-09-04 01:56:00
10:56 PM,63.0,55.0,75,30.07,10.0,SE,6.9,-,N/A,,Clear,140,2013-09-04 02:56:00
11:56 PM,60.1,55.0,83,30.08,10.0,SE,5.8,-,N/A,,Clear,140,2013-09-04 03:56:00